CZ-6A DEB, 61173

Orbit data source: Space-Track

CZ-6A DEB, 61173 is space debris in LEO originally from a launch on Tue, 06 Aug 2024 UTC launched from the Taiyaun Space Center, China (TSC). Debris objects in space refer to the collection of defunct objects orbiting the Earth. Examples of debris include non-operational satellites, rocket bodies, and fragments generated from explosions, collisions, or faulty payload assembly.

Loading next visibility...
Identifier
61173, 2024-140RT
Orbit
LEO
Country
Flag of CNCN / PRC
Related business
Manufacturer
SAST
Mission
Spacecraft
Bus & Motor
Unknown
Mass
Unknown
Launch date (UTC)
2024-08-06 (1 year ago)
Launch vehicle
Unknown
Launch site
Taiyaun Space Center, China (TSC)
Object type
Payload
Rocket body
Debris
Shape & HBR
Unknown shape, 0.1 m
Radar Cross Section
Small (<0.1 m²)

Expand to show TLE details & history
Last TLE update: 2 days ago

TLE from 2 days ago
0 CZ-6A DEB
1 61173U 24140RT  25311.97607947  .00148559  00000-0  64539-2 0  9991
2 61173  89.1368 302.5883 0053175 206.7522 153.0980 15.20398472 65906
Epoch: 2025-11-07T23:25Z
TLE epoch observation values (Epoch: 2025-11-07T23:25:33.266Z)
Latitude
-0°
Longitude
-96.21263°
Altitude
540.519 km
Speed
7.574 km/s
True Right ascension
20h 10m 21s
True Declination
0° 00' 00"
Sunlit
Object was in daylight at epoch
Visualization orbit readout
Latitude
Unknown
Longitude
Unknown
Altitude
Unknown
Speed
Unknown
Apparent Right ascension
Unknown
Apparent Declination
Unknown
Sunlit
N/A
Visualization observer readout
Local Sidereal Time
11:26:05
Azimuth
Unknown
Elevation
Unknown
Doppler factor
Unknown
Orbital elements
Apogee altitude
538.028 km
Perigee altitude
464.864 km
Semi-major axis
6,879.583 km
Eccentricity
0.00532
Inclination
89.1368°
RAAN
302.5883°
Arg. of periapsis
206.7522°
True anomaly
153.37208°
Mean anomaly
153.098°
Eccentric anomaly
153.2352°
Mean motion
3.80365 °/min
Orbital period
94.65 mins
BSTAR
0.0064539
Loading maneuver chart data...
Computing Atmospheric mass density...
Loading historical data...
Loading historical data...
Loading historical data...
Loading historical data...
Loading historical data...
Loading historical data...
Loading historical data...

Documentation

Showing up to 5 results
|